Weather History for Kansas City International, MO

Change the Weather History Date:

Saturday, July 13, 2013

  Actual Average Record
Temperature  
Mean Temperature 79 °F 78 °F  
Max Temperature 89 °F 88 °F 112 °F (1954)
Min Temperature 69 °F 69 °F 54 °F (1975)
Degree Days  
Heating Degree Days 0 0  
Month to date heating degree days 0 0  
Since 1 June heating degree days 17 9  
Since 1 July heating degree days 0 0  
Cooling Degree Days 14 13  
Month to date cooling degree days 161 167  
Year to date cooling degree days 542 549  
Since 1 June cooling degree days 437 433  
Growing Degree Days 29 (Base 50)    
Moisture  
Dew Point 61 °F    
Average Humidity 56    
Maximum Humidity 66    
Minimum Humidity 46    
Precipitation  
Precipitation T in 0.16 in 1.78 in (1952)
Month to date precipitation 0.17 2.05  
Year to date precipitation 18.22 21.11  
Snow  
Snow 0.00 in 0.00 in 0.00 in ()
Month to date snowfall 0.0 0.0  
Since 1 June snowfall 0.0 0.0  
Since 1 July snowfall 0.0 0.0  
Snow Depth 0.00 in    
Sea Level Pressure  
Sea Level Pressure 29.99 in    
Wind  
Wind Speed 10 mph (SE)    
Max Wind Speed 18 mph    
Max Gust Speed 23 mph    
Visibility 10 miles    
Events      
T = Trace of Precipitation, MM = Missing Value Source: NWS Daily Summary

Daily Weather History Graph

Daily Weather History Graph

Search for Another Location

Airport:

Trip Planner

Search our weather history database for the weather conditions in past years. The results will help you decide how hot, cold, wet, or windy it might be!

Date:

Astronomy

Jul. 13, 2013 Rise Set
Actual Time 6:03 AM CDT 8:45 PM CDT
Civil Twilight 5:31 AM CDT 9:17 PM CDT
Nautical Twilight 4:52 AM CDT 9:56 PM CDT
Astronomical Twilight 4:07 AM CDT 10:40 PM CDT
Moon 11:18 AM CDT (7/13) 11:29 PM CDT (7/13)
Length of Visible Light 15h 45m
Length of Day
14h 42m
Waxing Crescent, 26% of the Moon is Illuminated
Jul 13
Waxing Crescent
Jul 15
First Quarter
Jul 22
Full
Jul 29
Last Quarter
Aug 6
New

Hourly Weather History & Observations

Time (CDT) Temp. Heat Index Dew Point Humidity Pressure Visibility Wind Dir Wind Speed Gust Speed Precip Events Conditions
12:53 AM 75.0 °F - 55.9 °F 51% 29.98 in 10.0 mi SE 12.7 mph - N/A   Clear
1:53 AM 73.9 °F - 57.0 °F 55% 29.99 in 10.0 mi SE 9.2 mph - N/A   Clear
2:53 AM 73.0 °F - 57.0 °F 57% 30.00 in 10.0 mi SE 11.5 mph - N/A   Clear
3:53 AM 72.0 °F - 57.0 °F 59% 29.99 in 10.0 mi SE 11.5 mph - N/A   Clear
4:53 AM 71.1 °F - 57.0 °F 61% 29.99 in 10.0 mi SE 8.1 mph - N/A   Clear
5:53 AM 69.1 °F - 57.0 °F 65% 29.99 in 10.0 mi SE 6.9 mph - N/A   Partly Cloudy
6:53 AM 70.0 °F - 57.0 °F 63% 30.00 in 10.0 mi SE 6.9 mph - N/A   Scattered Clouds
7:53 AM 73.0 °F - 57.0 °F 57% 30.01 in 10.0 mi SSE 11.5 mph - N/A   Mostly Cloudy
8:53 AM 75.9 °F - 59.0 °F 56% 30.01 in 10.0 mi SSE 9.2 mph - N/A   Scattered Clouds
9:53 AM 78.1 °F - 60.1 °F 54% 30.01 in 10.0 mi South 9.2 mph - N/A   Scattered Clouds
10:53 AM 82.0 °F 83.1 °F 63.0 °F 52% 30.01 in 10.0 mi SSE 10.4 mph - N/A   Mostly Cloudy
11:53 AM 82.0 °F 83.4 °F 64.0 °F 54% 30.01 in 10.0 mi South 6.9 mph - N/A   Mostly Cloudy
12:53 PM 84.9 °F 86.6 °F 64.9 °F 51% 30.00 in 10.0 mi South 9.2 mph - N/A   Overcast
1:53 PM 87.1 °F 88.9 °F 64.9 °F 48% 29.99 in 10.0 mi South 6.9 mph - N/A   Overcast
2:53 PM 88.0 °F 90.3 °F 66.0 °F 48% 29.98 in 10.0 mi SE 6.9 mph - N/A   Mostly Cloudy
3:53 PM 87.1 °F 88.9 °F 64.9 °F 48% 29.97 in 10.0 mi SE 9.2 mph - N/A   Overcast
4:53 PM 84.9 °F 87.1 °F 66.0 °F 53% 29.97 in 10.0 mi ESE 13.8 mph - N/A   Overcast
5:53 PM 82.9 °F 85.0 °F 66.0 °F 56% 29.95 in 10.0 mi ESE 17.3 mph - N/A   Overcast
6:53 PM 82.0 °F 84.1 °F 66.0 °F 58% 29.94 in 10.0 mi SE 13.8 mph 21.9 mph N/A   Mostly Cloudy
7:53 PM 81.0 °F 82.2 °F 63.0 °F 54% 29.95 in 10.0 mi ESE 15.0 mph - N/A   Mostly Cloudy
8:53 PM 80.1 °F 81.7 °F 64.0 °F 58% 29.96 in 10.0 mi ESE 8.1 mph - N/A   Mostly Cloudy
9:53 PM 78.1 °F - 61.0 °F 56% 29.98 in 10.0 mi ESE 15.0 mph - N/A   Mostly Cloudy
10:53 PM 75.9 °F - 61.0 °F 60% 30.01 in 10.0 mi ESE 11.5 mph - N/A   Mostly Cloudy
11:53 PM 75.0 °F - 61.0 °F 62% 30.00 in 10.0 mi SE 10.4 mph - N/A   Overcast